Temperature
3 1 1 1 1 1 0 -0 -1 -1 -2 -2 -2 -2 -3 -4 -5 -5 -6 -6 -7 -8 -8 -9 -10 -10 -10 -10 -10 -10 -10 -10 -10 -9 -9 -7 -6 -5 -5 -4 -4 -4 -3
2 1 1 1 1 0 0 -1 -1 -2 -2 -3 -3 -3 -4 -5 -6 -6 -7 -7 -8 -8 -9 -10 -10 -11 -11 -11 -11 -11 -11 -10 -10 -10 -10 -8 -7 -4 -6 -5 -5 -4 -4
3 1 1 1 0 0 -0 -1 -2 -2 -3 -3 -3 -4 -5 -6 -6 -7 -7 -8 -8 -9 -10 -10 -11 -11 -11 -11 -11 -11 -11 -11 -11 -11 -10 -10 -9 -9 -8 -6 -5 -5 -5
3 2 1 1 1 0 -1 -1 -2 -3 -3 -3 -4 -5 -5 -6 -7 -8 -8 -9 -9 -10 -10 -11 -11 -11 -11 -11 -11 -11 -12 -12 -11 -11 -11 -11 -11 -10 -9 -8 -7 -7 -6
3 1 1 1 1 0 -1 -2 -2 -3 -3 -4 -4 -5 -6 -6 -7 -8 -9 -9 -10 -10 -11 -11 -11 -11 -11 -11 -12 -12 -12 -12 -12 -11 -11 -11 -11 -10 -10 -9 -8 -7 -6
2 1 1 1 0 -0 -1 -2 -2 -3 -3 -4 -5 -5 -6 -7 -8 -8 -9 -10 -10 -10 -11 -11 -11 -11 -11 -11 -12 -12 -12 -12 -12 -12 -12 -11 -11 -11 -10 -10 -9 -8 -7
2 1 1 1 0 -1 -1 -2 -3 -3 -4 -4 -5 -6 -6 -7 -8 -9 -10 -10 -10 -10 -11 -11 -11 -11 -11 -12 -12 -12 -12 -12 -12 -12 -12 -12 -11 -11 -11 -10 -10 -9 -8
1 1 1 1 -0 -1 -2 -2 -3 -3 -4 -5 -5 -6 -7 -7 -8 -9 -10 -10 -11 -11 -11 -11 -11 -11 -11 -11 -11 -11 -12 -12 -12 -12 -12 -12 -11 -11 -11 -11 -10 -9 -8
1 1 1 0 -0 -1 -2 -2 -3 -4 -4 -5 -5 -6 -7 -8 -8 -9 -9 -10 -10 -11 -11 -11 -11 -11 -11 -11 -11 -11 -11 -12 -12 -12 -12 -11 -11 -11 -11 -10 -10 -10 -9
1 0 0 0 -0 -1 -2 -2 -3 -4 -4 -5 -6 -6 -7 -8 -8 -9 -10 -10 -10 -11 -11 -11 -11 -11 -11 -11 -11 -11 -11 -11 -11 -11 -11 -11 -11 -11 -11 -10 -10 -9 -9
1 1 0 -0 -1 -1 -2 -3 -3 -4 -5 -5 -6 -6 -7 -8 -8 -9 -10 -10 -10 -11 -11 -11 -11 -11 -11 -11 -11 -11 -11 -11 -11 -11 -11 -11 -11 -10 -10 -10 -9 -9 -9
1 1 0 -0 -1 -1 -2 -3 -3 -4 -5 -5 -6 -6 -7 -8 -8 -9 -10 -10 -10 -11 -11 -11 -11 -11 -11 -11 -11 -11 -11 -11 -11 -11 -11 -10 -10 -10 -10 -9 -9 -9 -8
1 0 0 -0 -1 -2 -2 -3 -4 -4 -5 -5 -6 -6 -7 -8 -8 -9 -9 -10 -10 -11 -11 -11 -11 -11 -11 -11 -11 -11 -11 -11 -11 -11 -10 -10 -10 -10 -9 -9 -9 -9 -8
1 0 0 -1 -1 -2 -2 -3 -4 -4 -5 -5 -6 -7 -7 -8 -8 -9 -9 -10 -10 -11 -11 -11 -11 -11 -11 -10 -11 -11 -11 -11 -11 -10 -10 -10 -10 -10 -9 -9 -9 -9 -8
1 1 0 -1 -1 -2 -2 -3 -4 -4 -5 -5 -6 -6 -7 -7 -8 -8 -9 -9 -10 -10 -11 -11 -11 -11 -10 -10 -10 -11 -10 -11 -11 -11 -11 -10 -10 -10 -10 -9 -9 -9 -9
2 1 0 -0 -1 -2 -2 -3 -4 -4 -5 -5 -6 -6 -7 -7 -8 -8 -9 -9 -10 -10 -11 -11 -11 -11 -11 -10 -10 -11 -11 -11 -11 -11 -11 -11 -10 -10 -10 -10 -10 -10 -10
2 2 1 -0 -1 -2 -2 -3 -4 -4 -5 -5 -6 -6 -7 -7 -7 -8 -9 -9 -10 -10 -10 -11 -11 -11 -11 -11 -11 -11 -11 -11 -11 -11 -11 -11 -11 -11 -11 -10 -10 -10 -10
3 2 1 -0 -1 -2 -2 -3 -4 -4 -5 -5 -6 -6 -6 -7 -7 -8 -8 -9 -9 -10 -10 -10 -11 -11 -11 -11 -11 -11 -11 -11 -11 -11 -12 -12 -11 -11 -11 -11 -11 -11 -10
3 2 1 -0 -1 -2 -2 -3 -3 -4 -5 -5 -5 -6 -6 -6 -7 -7 -8 -8 -9 -9 -10 -10 -11 -11 -11 -10 -10 -11 -11 -11 -11 -11 -12 -12 -12 -12 -11 -11 -11 -11 -11
3 1 0 -0 -1 -2 -2 -3 -3 -4 -4 -5 -5 -6 -6 -6 -7 -7 -8 -8 -8 -9 -9 -10 -10 -10 -10 -10 -10 -10 -11 -11 -11 -11 -12 -12 -12 -12 -12 -12 -12 -12 -11
2 1 0 -0 -1 -2 -2 -3 -3 -4 -4 -5 -5 -5 -6 -6 -6 -7 -7 -8 -8 -8 -9 -9 -10 -10 -10 -10 -10 -10 -10 -10 -11 -11 -12 -12 -12 -13 -13 -13 -12 -12 -12
2 1 0 -1 -1 -2 -2 -3 -3 -4 -4 -4 -5 -5 -5 -6 -6 -6 -7 -7 -8 -8 -9 -9 -10 -10 -10 -10 -10 -10 -10 -10 -11 -11 -12 -12 -13 -13 -13 -13 -13 -13 -12
2 1 0 -1 -1 -2 -2 -3 -3 -4 -4 -4 -5 -5 -5 -6 -6 -6 -6 -7 -7 -8 -9 -10 -10 -10 -10 -10 -10 -9 -10 -10 -11 -11 -12 -12 -12 -13 -13 -13 -13 -13 -13
2 1 0 -1 -1 -1 -2 -3 -3 -3 -4 -4 -5 -5 -5 -5 -6 -6 -6 -7 -7 -8 -9 -10 -10 -10 -10 -10 -10 -9 -10 -10 -11 -11 -11 -12 -12 -13 -13 -13 -13 -13 -13
3 1 0 -0 -1 -1 -2 -2 -3 -3 -4 -4 -4 -5 -5 -5 -5 -6 -6 -6 -7 -8 -9 -10 -11 -11 -10 -10 -10 -10 -10 -10 -11 -11 -11 -12 -12 -13 -13 -13 -13 -13 -13
3 2 1 -0 -1 -1 -2 -2 -3 -3 -4 -4 -4 -5 -5 -5 -5 -5 -5 -6 -7 -7 -8 -9 -10 -10 -10 -10 -10 -10 -10 -11 -11 -11 -12 -12 -12 -13 -13 -13 -13 -14 -14
Wind_Speed
12 11 8 5 3 1 4 6 8 10 10 9 9 9 10 9 10 12 14 15 17 17 17 15 16 16 13 15 16 15 17 15 14 16 17 16 14 13 8 10 10 10 11
13 12 10 6 3 1 4 6 7 9 10 9 9 9 10 9 10 11 13 15 16 17 16 16 16 16 14 15 16 16 14 14 13 14 15 12 12 5 11 11 9 9 10
15 13 11 7 3 0 3 5 7 8 9 11 9 10 8 8 8 10 11 15 16 16 16 17 17 17 15 14 16 16 17 15 15 12 10 9 8 14 10 11 10 11 12
15 13 11 7 4 1 2 4 6 7 9 10 9 11 10 10 12 10 11 16 16 16 16 17 17 17 16 15 16 15 15 16 14 13 12 12 15 11 10 10 13 15 14
14 13 10 7 4 1 1 3 5 7 8 9 10 10 10 10 10 11 13 14 15 15 16 17 18 17 16 17 17 17 16 14 15 14 13 14 13 14 14 16 15 14 13
13 12 10 7 4 2 1 3 5 6 7 9 9 10 12 12 13 14 13 12 11 14 16 18 18 18 17 17 17 17 18 16 17 15 13 13 13 13 13 15 16 15 14
13 12 11 8 5 3 2 3 5 6 7 9 9 10 11 12 13 13 13 13 12 12 15 18 18 18 19 19 19 17 17 17 17 15 13 13 13 13 13 14 15 16 15
12 12 10 7 5 3 2 3 5 6 7 8 9 9 10 9 9 12 12 12 12 13 18 19 19 20 20 20 18 15 16 15 15 16 16 13 13 13 13 13 13 14 14
13 12 10 7 5 4 3 3 5 6 7 8 9 9 10 10 11 12 12 11 13 15 18 19 19 20 20 20 18 14 16 15 15 14 15 13 12 12 12 12 12 12 13
13 12 9 8 5 4 3 3 4 6 7 8 8 8 10 11 12 12 12 13 15 17 18 18 18 19 19 19 17 16 15 15 14 12 14 13 12 11 11 11 11 11 12
14 12 10 8 6 4 3 3 4 6 7 8 8 9 10 11 11 11 12 14 15 16 16 17 17 17 18 18 17 17 17 15 14 12 12 12 13 10 10 10 10 10 10
13 12 10 8 6 5 4 4 4 5 6 7 8 9 10 10 11 11 12 14 15 16 16 17 17 17 17 17 16 16 16 15 14 13 12 11 10 11 9 9 9 9 10
13 12 10 9 7 6 5 4 5 5 6 7 9 9 10 10 11 12 12 14 14 15 16 16 16 17 17 16 15 15 14 14 14 13 13 12 11 11 9 9 8 8 8
14 13 11 9 8 6 5 5 5 5 6 7 9 9 10 11 11 12 12 13 14 14 14 15 15 16 16 15 13 13 13 14 13 13 13 12 12 12 11 9 8 8 8
14 14 12 10 9 7 6 5 5 5 6 7 9 9 10 10 11 11 12 12 13 13 14 14 15 15 14 13 13 12 12 13 13 13 13 13 15 16 12 11 11 10 8
16 14 13 11 10 8 6 5 5 5 6 7 9 9 10 10 11 11 12 12 13 13 13 14 14 15 12 19 19 15 11 12 13 13 13 13 14 16 17 17 16 14 11
16 15 14 12 10 8 7 6 5 5 6 8 8 9 9 10 11 11 12 12 13 13 13 13 13 14 16 20 19 17 11 11 11 12 12 12 13 16 13 14 14 13 14
15 15 13 11 10 8 6 5 5 6 7 8 8 8 9 10 11 11 12 12 12 12 12 13 13 14 15 19 18 16 11 10 11 11 12 12 13 14 15 13 12 11 11
14 13 12 11 9 8 7 5 6 6 7 8 8 8 9 10 11 11 12 12 12 12 12 12 13 13 14 18 18 16 10 9 10 9 10 12 12 18 19 14 13 12 11
12 12 12 11 10 8 7 6 6 7 7 7 8 9 9 10 11 11 12 11 11 11 12 12 12 13 13 17 19 17 9 9 8 8 9 12 14 17 18 13 13 13 14
13 13 12 11 10 9 8 7 7 7 7 7 8 9 9 9 10 11 10 11 11 11 11 12 12 12 13 16 18 18 9 8 8 7 7 8 15 16 16 14 12 14 14
14 14 12 11 9 9 8 8 8 6 6 7 8 9 9 8 8 10 10 10 10 11 11 11 12 10 12 14 16 18 14 11 7 6 7 8 14 14 14 12 15 16 14
14 14 12 11 9 10 9 9 7 5 5 7 8 8 9 8 8 9 10 9 9 8 9 10 11 11 11 13 18 16 14 12 7 6 8 11 12 12 10 12 14 13 9
15 14 13 12 11 10 10 9 6 5 6 7 7 7 8 8 8 7 7 7 7 8 10 10 11 11 11 12 12 9 7 8 7 6 7 10 10 9 9 9 9 8 8
14 14 13 13 12 11 10 9 7 6 6 7 6 7 6 7 7 7 7 8 7 8 11 10 10 11 12 15 21 14 9 8 7 5 5 6 6 6 7 6 7 7 8
15 14 14 13 12 11 10 9 8 7 6 6 6 5 5 6 6 7 8 7 8 12 12 12 13 12 15 21 20 19 16 14 12 6 5 6 6 7 7 7 7 7 7
Wind_Direction
198 184 181 177 165 44 6 358 352 350 347 345 342 338 338 336 337 337 336 335 335 333 330 326 324 322 319 317 316 316 313 313 314 313 312 305 293 281 294 302 299 301 312
196 190 188 188 185 16 1 353 350 346 347 344 335 331 327 326 327 330 331 334 333 331 329 326 323 320 318 315 316 316 312 311 315 314 315 315 310 302 321 298 294 305 315
205 194 191 191 188 344 0 347 342 339 343 341 334 331 329 327 335 336 332 332 330 328 327 324 321 318 317 313 314 313 310 310 309 305 305 304 303 320 296 302 305 315 313
207 196 190 188 185 147 355 335 335 336 341 340 339 339 336 334 334 331 325 327 327 327 326 324 321 317 315 311 311 309 305 303 302 301 294 284 289 292 302 303 308 307 307
202 192 186 177 168 160 321 324 328 333 340 341 340 336 333 330 327 327 326 328 327 326 325 324 321 318 315 311 308 306 302 298 295 295 294 290 287 280 282 294 303 305 305
192 184 173 165 167 177 274 312 324 333 339 339 338 336 332 330 328 330 329 329 326 325 326 326 321 318 315 312 309 304 300 296 292 289 286 286 286 286 287 290 297 301 304
184 178 174 175 182 205 263 304 322 332 338 337 336 333 330 328 327 328 327 327 325 325 326 326 322 319 316 313 309 304 299 297 292 287 284 282 279 280 281 284 290 295 299
185 182 179 180 188 210 255 301 323 330 334 333 332 328 328 326 322 324 323 322 322 322 322 323 320 318 318 316 314 308 302 298 295 288 284 281 278 277 277 279 286 293 298
187 184 180 182 191 211 247 297 317 324 327 327 326 325 328 325 322 322 321 320 321 322 322 321 321 320 321 320 318 311 307 303 296 290 285 281 277 276 274 274 276 282 293
189 186 184 185 192 209 238 280 306 315 319 321 324 320 321 322 321 319 321 322 322 323 323 323 322 322 322 322 322 319 314 310 303 295 288 285 283 278 276 274 273 272 277
190 187 186 186 192 207 233 271 295 307 314 319 319 318 319 320 320 320 322 323 322 324 324 324 324 323 324 325 326 325 326 321 317 312 303 296 292 286 280 277 276 276 277
189 186 185 187 197 213 233 263 286 299 310 313 313 314 317 319 320 322 323 323 323 324 324 325 325 325 326 326 328 330 333 333 330 329 323 315 308 297 288 284 282 282 281
186 185 188 196 204 215 232 256 277 294 304 308 309 312 316 319 321 322 323 323 323 323 325 326 326 326 327 327 328 333 338 342 341 339 337 333 328 324 312 302 301 295 292
188 190 195 201 206 215 230 251 271 288 298 303 306 310 315 318 318 318 320 321 322 323 325 325 325 325 326 329 332 340 344 345 346 345 345 346 344 342 342 339 334 327 317
194 196 199 201 205 213 225 242 264 280 292 298 302 307 311 313 314 316 318 320 321 322 323 322 325 327 328 330 343 349 348 349 349 348 349 351 356 360 359 360 358 352 344
199 198 200 201 205 211 220 234 257 276 288 291 295 302 307 311 313 315 317 318 320 321 322 323 324 326 327 332 347 357 352 352 352 350 350 351 356 359 2 2 3 3 358
198 197 198 200 202 206 212 229 253 273 280 284 290 297 302 307 311 313 314 317 320 320 320 322 323 323 325 332 341 352 352 350 350 349 349 351 352 356 354 353 355 357 357
196 195 194 193 194 195 202 220 246 264 273 280 287 294 302 305 310 312 314 316 317 317 317 318 320 321 323 329 335 342 340 341 345 347 347 348 348 351 354 350 349 349 351
191 188 186 183 182 187 194 211 242 257 269 278 290 299 303 305 309 312 314 316 315 313 314 315 317 319 321 326 330 332 327 330 335 340 342 344 345 348 353 349 346 344 345
177 173 171 174 181 186 190 213 241 256 268 282 293 299 300 302 306 309 312 313 312 309 312 312 315 316 316 319 322 324 319 321 324 331 335 340 346 348 351 349 345 344 342
170 168 170 179 185 180 189 217 240 253 270 284 291 295 298 302 304 306 309 311 311 310 312 314 315 315 315 316 317 319 320 320 317 322 329 334 342 345 348 349 346 342 339
172 172 176 183 180 180 194 220 239 253 269 280 287 294 300 303 300 307 310 313 314 314 317 319 320 320 320 317 316 317 320 323 313 310 318 327 336 339 342 346 346 345 342
176 179 182 182 183 190 201 221 236 246 264 278 288 297 302 302 304 309 313 317 318 317 319 320 322 323 322 321 322 318 314 315 310 302 306 318 329 332 333 341 345 346 345
182 181 184 188 194 197 206 220 228 236 257 275 289 298 303 307 311 312 312 315 316 317 319 323 325 324 323 327 331 330 319 309 302 299 302 309 315 320 325 333 340 344 346
183 184 189 196 198 195 203 211 216 225 248 269 283 293 299 305 312 314 313 311 308 311 318 322 323 324 325 331 340 347 344 338 327 313 303 310 319 325 331 334 338 342 344
183 187 194 199 198 195 200 203 205 214 235 258 277 288 297 304 310 315 316 309 307 316 321 323 325 324 325 332 341 346 347 343 341 327 313 318 322 324 327 330 334 339 344
Height
1608 1607 1607 1607 1606 1604 1602 1599 1595 1591 1587 1583 1579 1574 1569 1564 1558 1553 1547 1541 1535 1529 1524 1519 1513 1508 1503 1498 1492 1486 1481 1475 1470 1462 1454 1448 1444 1440 1437 1434 1432 1430 1427
1604 1603 1604 1604 1603 1602 1599 1596 1593 1589 1585 1580 1576 1571 1565 1560 1555 1550 1544 1539 1533 1527 1521 1516 1510 1505 1500 1494 1489 1484 1478 1472 1468 1462 1454 1446 1441 1437 1433 1430 1428 1425 1422
1600 1600 1600 1601 1600 1599 1597 1593 1590 1586 1582 1578 1573 1568 1563 1558 1553 1547 1541 1535 1530 1524 1518 1513 1507 1502 1497 1491 1486 1481 1475 1469 1465 1461 1457 1450 1441 1435 1429 1427 1425 1421 1418
1595 1596 1597 1597 1597 1596 1593 1590 1587 1583 1579 1575 1570 1565 1560 1555 1550 1544 1538 1532 1527 1521 1516 1510 1505 1499 1494 1488 1482 1477 1472 1466 1461 1457 1453 1450 1444 1438 1428 1424 1421 1418 1415
1591 1592 1593 1594 1593 1592 1590 1587 1584 1581 1577 1572 1568 1562 1557 1552 1547 1541 1535 1530 1524 1518 1513 1507 1502 1496 1490 1484 1478 1472 1467 1462 1457 1452 1448 1444 1440 1436 1430 1422 1417 1414 1411
1586 1588 1589 1590 1590 1589 1587 1584 1581 1578 1574 1570 1565 1560 1555 1549 1544 1538 1532 1527 1521 1516 1510 1504 1499 1493 1487 1480 1474 1467 1462 1457 1452 1447 1443 1439 1435 1431 1427 1421 1416 1411 1407
1582 1583 1585 1586 1586 1585 1583 1581 1578 1575 1571 1567 1562 1557 1552 1547 1541 1536 1530 1524 1518 1513 1507 1501 1495 1489 1483 1476 1469 1463 1456 1451 1445 1441 1437 1434 1430 1427 1423 1419 1414 1408 1403
1578 1580 1581 1582 1582 1581 1580 1578 1575 1572 1568 1564 1559 1554 1549 1544 1538 1533 1527 1522 1516 1510 1504 1498 1492 1486 1479 1473 1465 1458 1452 1445 1440 1435 1432 1428 1424 1422 1419 1416 1412 1406 1401
1574 1576 1578 1579 1579 1578 1577 1575 1572 1569 1565 1561 1556 1552 1547 1541 1536 1531 1525 1520 1514 1508 1501 1495 1489 1483 1476 1469 1462 1454 1447 1441 1435 1430 1426 1422 1419 1416 1414 1411 1409 1406 1400
1571 1573 1574 1575 1575 1574 1573 1571 1569 1566 1562 1558 1554 1549 1544 1539 1533 1528 1523 1517 1511 1505 1499 1493 1486 1480 1473 1466 1459 1452 1444 1437 1431 1426 1421 1418 1414 1411 1409 1406 1404 1402 1399
1566 1568 1570 1571 1571 1571 1569 1568 1565 1562 1559 1555 1551 1546 1541 1536 1530 1525 1520 1514 1509 1503 1496 1490 1484 1477 1470 1464 1457 1450 1442 1434 1428 1423 1418 1414 1410 1407 1404 1402 1400 1398 1395
1562 1565 1566 1567 1567 1567 1566 1564 1562 1559 1556 1552 1548 1543 1538 1533 1528 1523 1517 1512 1506 1500 1494 1488 1481 1475 1468 1462 1455 1448 1441 1434 1427 1421 1416 1412 1408 1404 1402 1399 1396 1394 1391
1558 1560 1562 1563 1563 1563 1562 1561 1559 1556 1553 1549 1545 1540 1536 1531 1526 1520 1515 1509 1503 1497 1492 1486 1479 1473 1467 1460 1454 1448 1441 1434 1428 1422 1416 1411 1407 1403 1400 1397 1394 1391 1388
1553 1555 1557 1559 1559 1559 1558 1557 1555 1552 1549 1546 1542 1537 1533 1528 1523 1517 1512 1506 1501 1495 1489 1483 1477 1471 1465 1459 1453 1447 1441 1435 1429 1423 1418 1413 1408 1404 1400 1396 1393 1390 1387
1548 1550 1553 1554 1555 1555 1554 1553 1552 1549 1546 1542 1539 1535 1530 1525 1520 1515 1509 1504 1498 1493 1487 1481 1476 1470 1464 1458 1453 1447 1441 1435 1429 1424 1419 1414 1410 1406 1401 1398 1393 1390 1386
1543 1546 1548 1550 1550 1551 1550 1549 1548 1545 1543 1539 1535 1531 1527 1522 1517 1512 1507 1501 1496 1491 1485 1479 1474 1468 1463 1458 1453 1447 1441 1435 1430 1424 1420 1415 1411 1406 1402 1398 1394 1390 1386
1538 1540 1543 1545 1546 1546 1546 1545 1544 1542 1539 1536 1532 1528 1524 1519 1514 1509 1504 1499 1493 1488 1483 1477 1472 1467 1461 1457 1452 1447 1441 1436 1430 1425 1420 1416 1412 1407 1402 1398 1394 1390 1386
1533 1535 1538 1540 1541 1542 1542 1541 1540 1538 1536 1532 1529 1525 1521 1516 1511 1506 1501 1496 1491 1486 1480 1475 1470 1465 1460 1455 1450 1446 1441 1436 1431 1426 1421 1416 1412 1408 1403 1398 1393 1389 1385
1529 1531 1534 1536 1537 1537 1538 1537 1536 1534 1532 1529 1526 1522 1518 1513 1508 1503 1498 1493 1488 1483 1478 1473 1468 1463 1458 1453 1449 1444 1440 1435 1430 1425 1420 1416 1412 1408 1403 1397 1393 1388 1384
1524 1526 1529 1531 1532 1533 1533 1533 1532 1531 1528 1526 1523 1519 1515 1510 1506 1501 1496 1491 1486 1481 1476 1471 1466 1461 1456 1451 1447 1442 1438 1433 1428 1424 1419 1415 1411 1407 1402 1397 1392 1387 1383
1519 1522 1524 1526 1528 1528 1529 1529 1528 1527 1525 1522 1519 1516 1512 1507 1503 1498 1493 1488 1483 1479 1474 1469 1464 1460 1455 1449 1445 1440 1436 1431 1427 1422 1418 1414 1410 1405 1400 1396 1392 1387 1382
1514 1517 1519 1521 1523 1524 1525 1524 1524 1523 1521 1519 1516 1513 1509 1505 1500 1496 1491 1486 1481 1476 1471 1466 1462 1458 1453 1448 1442 1438 1434 1429 1425 1420 1416 1412 1408 1403 1399 1395 1390 1386 1381
1510 1512 1514 1516 1518 1519 1520 1520 1520 1519 1517 1515 1513 1510 1507 1503 1498 1494 1489 1484 1479 1474 1469 1464 1460 1455 1450 1446 1441 1435 1431 1427 1423 1418 1414 1410 1406 1401 1397 1393 1389 1384 1380
1504 1507 1509 1511 1513 1514 1515 1516 1515 1515 1514 1512 1510 1507 1504 1500 1496 1492 1487 1482 1476 1471 1467 1463 1458 1453 1448 1444 1439 1433 1428 1424 1420 1416 1412 1408 1404 1400 1396 1392 1388 1384 1381
1499 1501 1503 1505 1507 1509 1510 1511 1511 1511 1510 1508 1506 1504 1501 1498 1494 1490 1485 1480 1475 1470 1466 1461 1456 1451 1446 1442 1438 1433 1428 1423 1419 1414 1410 1407 1403 1400 1396 1392 1388 1385 1381
1492 1495 1497 1500 1502 1503 1505 1506 1506 1506 1506 1505 1503 1501 1498 1495 1492 1488 1484 1479 1475 1469 1464 1459 1454 1449 1446 1441 1436 1431 1426 1421 1417 1413 1409 1406 1402 1399 1395 1392 1388 1385 1381